Location: Laterina
(43.5167°N, 11.7167°E)
Time: 08:17:19
(UTC+00:00)

Cosmos 2026 Rocket - Pass Details

Date: 23 January 2021
Orbit: 940 x 1000 km, 82.9° (Epoch: 08 March)

Event Time Altitude Azimuth Distance (km) Brightness Sun altitude
Rises 05:26:47 0° 350° (N) 3,712 6.8 -12.9°
Reaches altitude 10° 05:29:19 10° 349° (N) 2,766 6.1 -12.5°
Maximum altitude 05:35:40 75° 265° (W) 1,034 4.0 -11.3°
Drops below altitude 10° 05:42:00 10° 181° (S) 2,762 6.6 -10.2°
Sets 05:44:31 0° 180° (S) 3,707 7.3 -9.8°
